Time,TemperatureF,DewpointF,PressureIn,WindDirection,WindDirectionDegrees,WindSpeedMPH,WindSpeedGustMPH,Humidity,HourlyPrecipIn,Conditions,Clouds,dailyrainin,SoftwareType,DateUTC
2013-06-26 00:00:00,81.4,23.9,29.69,East,101,2.0,3.0,12,0.00,,,0.00,Wunderground v.1.15,2013-06-26 07:00:00,
2013-06-26 00:10:00,79.9,22.7,29.69,ENE,57,3.0,3.0,12,0.00,,,0.00,Wunderground v.1.15,2013-06-26 07:10:00,
2013-06-26 00:15:00,79.9,22.7,29.69,NNE,24,3.0,4.0,12,0.00,,,0.00,Wunderground v.1.15,2013-06-26 07:15:00,
2013-06-26 00:20:00,80.2,23.0,29.69,NNE,23,3.0,3.0,12,0.00,,,0.00,Wunderground v.1.15,2013-06-26 07:20:00,
2013-06-26 00:30:00,79.8,24.6,29.69,North,9,2.0,4.0,13,0.00,,,0.00,Wunderground v.1.15,2013-06-26 07:30:00,
2013-06-26 00:35:00,80.3,23.0,29.69,North,359,4.0,5.0,12,0.00,,,0.00,Wunderground v.1.15,2013-06-26 07:35:00,
2013-06-26 00:40:00,79.9,22.7,29.69,NNW,342,5.0,5.0,12,0.00,,,0.00,Wunderground v.1.15,2013-06-26 07:40:00,
2013-06-26 00:45:00,79.4,24.2,29.69,North,356,4.0,5.0,13,0.00,,,0.00,Wunderground v.1.15,2013-06-26 07:45:00,
2013-06-26 00:50:00,79.4,24.2,29.69,NNW,344,4.0,4.0,13,0.00,,,0.00,Wunderground v.1.15,2013-06-26 07:50:00,
2013-06-26 01:00:00,79.3,24.2,29.69,NW,323,4.0,6.0,13,0.00,,,0.00,Wunderground v.1.15,2013-06-26 08:00:00,
2013-06-26 01:05:00,79.4,24.2,29.69,NNW,332,6.0,6.0,13,0.00,,,0.00,Wunderground v.1.15,2013-06-26 08:05:00,
2013-06-26 01:10:00,79.5,24.3,29.69,NNW,340,6.0,6.0,13,0.00,,,0.00,Wunderground v.1.15,2013-06-26 08:10:00,
2013-06-26 01:15:00,79.4,24.2,29.69,NNW,330,6.0,6.0,13,0.00,,,0.00,Wunderground v.1.15,2013-06-26 08:15:00,
2013-06-26 01:20:00,79.0,25.7,29.69,WNW,298,5.0,5.0,14,0.00,,,0.00,Wunderground v.1.15,2013-06-26 08:20:00,
2013-06-26 01:30:00,79.9,24.6,29.69,WNW,297,5.0,5.0,13,0.00,,,0.00,Wunderground v.1.15,2013-06-26 08:30:00,
2013-06-26 01:35:00,79.9,24.6,29.69,WNW,301,6.0,6.0,13,0.00,,,0.00,Wunderground v.1.15,2013-06-26 08:35:00,
2013-06-26 01:40:00,80.0,24.7,29.69,WNW,300,6.0,6.0,13,0.00,,,0.00,Wunderground v.1.15,2013-06-26 08:40:00,
2013-06-26 01:45:00,79.8,26.3,29.69,WNW,297,5.0,6.0,14,0.00,,,0.00,Wunderground v.1.15,2013-06-26 08:45:00,
2013-06-26 01:55:00,79.7,27.9,29.69,WNW,301,4.0,5.0,15,0.00,,,0.00,Wunderground v.1.15,2013-06-26 08:55:00,
2013-06-26 02:00:00,80.0,28.2,29.69,WNW,298,4.0,4.0,15,0.00,,,0.00,Wunderground v.1.15,2013-06-26 09:00:00,
2013-06-26 02:05:00,80.0,28.2,29.69,NW,304,4.0,4.0,15,0.00,,,0.00,Wunderground v.1.15,2013-06-26 09:05:00,
2013-06-26 02:10:00,79.7,29.5,29.69,NW,304,4.0,5.0,16,0.00,,,0.00,Wunderground v.1.15,2013-06-26 09:10:00,
2013-06-26 02:20:00,79.5,29.4,29.69,NW,304,5.0,5.0,16,0.00,,,0.00,Wunderground v.1.15,2013-06-26 09:20:00,
2013-06-26 02:25:00,79.3,30.7,29.68,NW,311,5.0,5.0,17,0.00,,,0.00,Wunderground v.1.15,2013-06-26 09:25:00,
2013-06-26 02:30:00,79.7,31.0,29.68,NNW,340,6.0,6.0,17,0.00,,,0.00,Wunderground v.1.15,2013-06-26 09:30:00,
2013-06-26 02:35:00,79.4,30.8,29.68,NW,314,5.0,6.0,17,0.00,,,0.00,Wunderground v.1.15,2013-06-26 09:35:00,
2013-06-26 02:40:00,79.2,32.0,29.68,NW,306,5.0,5.0,18,0.00,,,0.00,Wunderground v.1.15,2013-06-26 09:40:00,
2013-06-26 02:50:00,79.7,31.0,29.68,NW,304,5.0,7.0,17,0.00,,,0.00,Wunderground v.1.15,2013-06-26 09:50:00,
2013-06-26 02:55:00,79.5,30.8,29.69,WNW,301,5.0,7.0,17,0.00,,,0.00,Wunderground v.1.15,2013-06-26 09:55:00,
2013-06-26 03:00:00,79.5,30.8,29.69,WNW,301,5.0,6.0,17,0.00,,,0.00,Wunderground v.1.15,2013-06-26 10:00:00,
2013-06-26 03:05:00,79.8,31.1,29.69,NW,304,6.0,6.0,17,0.00,,,0.00,Wunderground v.1.15,2013-06-26 10:05:00,
2013-06-26 03:10:00,79.3,30.7,29.69,WNW,301,6.0,6.0,17,0.00,,,0.00,Wunderground v.1.15,2013-06-26 10:10:00,
2013-06-26 03:20:00,77.0,30.2,29.69,East,90,3.0,3.0,18,0.00,,,0.00,Wunderground v.1.15,2013-06-26 10:20:00,
2013-06-26 03:30:00,75.1,31.3,29.70,NW,319,1.0,1.0,20,0.00,,,0.00,Wunderground v.1.15,2013-06-26 10:30:00,
2013-06-26 03:35:00,75.4,30.2,29.70,NNW,342,1.0,1.0,19,0.00,,,0.00,Wunderground v.1.15,2013-06-26 10:35:00,
2013-06-26 03:40:00,75.6,30.4,29.70,NNW,341,1.0,1.0,19,0.00,,,0.00,Wunderground v.1.15,2013-06-26 10:40:00,
2013-06-26 03:50:00,76.1,30.8,29.70,NNW,328,1.0,1.0,19,0.00,,,0.00,Wunderground v.1.15,2013-06-26 10:50:00,
2013-06-26 03:55:00,76.1,29.5,29.70,NW,304,1.0,1.0,18,0.00,,,0.00,Wunderground v.1.15,2013-06-26 10:55:00,
2013-06-26 04:00:00,76.3,29.7,29.70,West,273,1.0,2.0,18,0.00,,,0.00,Wunderground v.1.15,2013-06-26 11:00:00,
2013-06-26 04:10:00,75.1,30.0,29.70,WNW,297,3.0,5.0,19,0.00,,,0.00,Wunderground v.1.15,2013-06-26 11:10:00,
2013-06-26 04:15:00,75.2,30.1,29.71,WNW,290,4.0,5.0,19,0.00,,,0.00,Wunderground v.1.15,2013-06-26 11:15:00,
2013-06-26 04:20:00,76.0,30.7,29.71,WNW,292,4.0,5.0,19,0.00,,,0.00,Wunderground v.1.15,2013-06-26 11:20:00,
2013-06-26 04:25:00,76.7,30.0,29.71,WNW,289,4.0,5.0,18,0.00,,,0.00,Wunderground v.1.15,2013-06-26 11:25:00,
2013-06-26 04:35:00,77.4,29.1,29.72,WNW,293,5.0,8.0,17,0.00,,,0.00,Wunderground v.1.15,2013-06-26 11:35:00,
2013-06-26 04:40:00,77.5,29.2,29.72,WNW,284,5.0,5.0,17,0.00,,,0.00,Wunderground v.1.15,2013-06-26 11:40:00,
2013-06-26 04:45:00,77.5,29.2,29.72,WNW,288,5.0,6.0,17,0.00,,,0.00,Wunderground v.1.15,2013-06-26 11:45:00,
2013-06-26 04:50:00,77.6,29.3,29.72,West,279,5.0,5.0,17,0.00,,,0.00,Wunderground v.1.15,2013-06-26 11:50:00,
2013-06-26 05:00:00,77.5,29.2,29.73,WSW,253,4.0,4.0,17,0.00,,,0.00,Wunderground v.1.15,2013-06-26 12:00:00,
2013-06-26 05:05:00,77.2,29.0,29.73,West,281,3.0,4.0,17,0.00,,,0.00,Wunderground v.1.15,2013-06-26 12:05:00,
2013-06-26 05:10:00,76.9,28.7,29.73,West,269,3.0,3.0,17,0.00,,,0.00,Wunderground v.1.15,2013-06-26 12:10:00,
2013-06-26 05:20:00,75.7,29.2,29.73,WNW,283,3.0,3.0,18,0.00,,,0.00,Wunderground v.1.15,2013-06-26 12:20:00,
2013-06-26 05:25:00,75.6,29.1,29.73,WNW,285,4.0,4.0,18,0.00,,,0.00,Wunderground v.1.15,2013-06-26 12:25:00,
2013-06-26 05:35:00,75.6,29.1,29.74,West,276,5.0,5.0,18,0.00,,,0.00,Wunderground v.1.15,2013-06-26 12:35:00,
2013-06-26 05:40:00,76.2,29.6,29.74,WNW,287,4.0,4.0,18,0.00,,,0.00,Wunderground v.1.15,2013-06-26 12:40:00,
2013-06-26 05:45:00,76.7,30.0,29.74,WNW,285,3.0,4.0,18,0.00,,,0.00,Wunderground v.1.15,2013-06-26 12:45:00,
2013-06-26 05:50:00,76.9,30.1,29.74,West,277,2.0,2.0,18,0.00,,,0.00,Wunderground v.1.15,2013-06-26 12:50:00,
2013-06-26 06:00:00,78.2,26.7,29.74,West,267,2.0,2.0,15,0.00,,,0.00,Wunderground v.1.15,2013-06-26 13:00:00,
2013-06-26 06:05:00,78.8,27.2,29.75,WSW,253,1.0,3.0,15,0.00,,,0.00,Wunderground v.1.15,2013-06-26 13:05:00,
2013-06-26 06:10:00,79.1,25.8,29.75,West,270,2.0,2.0,14,0.00,,,0.00,Wunderground v.1.15,2013-06-26 13:10:00,
2013-06-26 06:20:00,79.6,26.2,29.75,WSW,257,2.0,2.0,14,0.00,,,0.00,Wunderground v.1.15,2013-06-26 13:20:00,
2013-06-26 06:25:00,80.0,26.5,29.75,West,269,2.0,2.0,14,0.00,,,0.00,Wunderground v.1.15,2013-06-26 13:25:00,
2013-06-26 06:30:00,80.7,25.3,29.75,SSW,200,1.0,1.0,13,0.00,,,0.00,Wunderground v.1.15,2013-06-26 13:30:00,
2013-06-26 06:35:00,81.1,25.6,29.75,South,184,1.0,2.0,13,0.00,,,0.00,Wunderground v.1.15,2013-06-26 13:35:00,
2013-06-26 06:40:00,81.5,27.7,29.75,SSW,207,1.0,1.0,14,0.00,,,0.00,Wunderground v.1.15,2013-06-26 13:40:00,
2013-06-26 06:50:00,83.2,27.2,29.76,ENE,70,0.0,1.0,13,0.00,,,0.00,Wunderground v.1.15,2013-06-26 13:50:00,
2013-06-26 07:00:00,83.2,27.2,29.75,ENE,78,1.0,1.0,13,0.00,,,0.00,Wunderground v.1.15,2013-06-26 14:00:00,
2013-06-26 07:05:00,83.7,25.7,29.76,ENE,70,1.0,1.0,12,0.00,,,0.00,Wunderground v.1.15,2013-06-26 14:05:00,
2013-06-26 07:10:00,84.0,27.8,29.76,ENE,75,1.0,3.0,13,0.00,,,0.00,Wunderground v.1.15,2013-06-26 14:10:00,
2013-06-26 07:20:00,83.4,27.4,29.76,East,99,3.0,3.0,13,0.00,,,0.00,Wunderground v.1.15,2013-06-26 14:20:00,
2013-06-26 07:25:00,83.6,25.6,29.76,East,80,2.0,4.0,12,0.00,,,0.00,Wunderground v.1.15,2013-06-26 14:25:00,
2013-06-26 07:30:00,84.1,26.0,29.76,ENE,66,2.0,2.0,12,0.00,,,0.00,Wunderground v.1.15,2013-06-26 14:30:00,
2013-06-26 07:40:00,84.5,26.3,29.76,SE,124,2.0,2.0,12,0.00,,,0.00,Wunderground v.1.15,2013-06-26 14:40:00,
2013-06-26 07:45:00,84.8,26.5,29.76,ESE,114,2.0,2.0,12,0.00,,,0.00,Wunderground v.1.15,2013-06-26 14:45:00,
2013-06-26 07:50:00,85.3,24.8,29.76,ESE,115,2.0,4.0,11,0.00,,,0.00,Wunderground v.1.15,2013-06-26 14:50:00,
2013-06-26 07:55:00,86.0,25.4,29.76,East,80,2.0,4.0,11,0.00,,,0.00,Wunderground v.1.15,2013-06-26 14:55:00,
2013-06-26 08:00:00,86.0,25.4,29.76,ENE,57,2.0,2.0,11,0.00,,,0.00,Wunderground v.1.15,2013-06-26 15:00:00,
2013-06-26 08:10:00,86.2,25.5,29.76,SE,132,3.0,4.0,11,0.00,,,0.00,Wunderground v.1.15,2013-06-26 15:10:00,
2013-06-26 08:15:00,87.0,26.1,29.76,East,93,3.0,4.0,11,0.00,,,0.00,Wunderground v.1.15,2013-06-26 15:15:00,
2013-06-26 08:20:00,87.5,26.5,29.76,East,85,2.0,2.0,11,0.00,,,0.00,Wunderground v.1.15,2013-06-26 15:20:00,
2013-06-26 08:25:00,88.3,27.1,29.76,ENE,75,1.0,2.0,11,0.00,,,0.00,Wunderground v.1.15,2013-06-26 15:25:00,
2013-06-26 08:30:00,87.4,30.5,29.76,East,96,3.0,3.0,13,0.00,,,0.00,Wunderground v.1.15,2013-06-26 15:30:00,
2013-06-26 08:40:00,86.7,35.1,29.76,SW,236,5.0,5.0,16,0.00,,,0.00,Wunderground v.1.15,2013-06-26 15:40:00,
2013-06-26 08:45:00,86.5,35.0,29.76,WSW,252,6.0,6.0,16,0.00,,,0.00,Wunderground v.1.15,2013-06-26 15:45:00,
2013-06-26 08:50:00,86.6,33.4,29.76,WSW,251,5.0,5.0,15,0.00,,,0.00,Wunderground v.1.15,2013-06-26 15:50:00,
2013-06-26 08:55:00,87.3,32.3,29.76,NW,323,4.0,5.0,14,0.00,,,0.00,Wunderground v.1.15,2013-06-26 15:55:00,
2013-06-26 09:00:00,87.8,32.7,29.76,SE,136,2.0,2.0,14,0.00,,,0.00,Wunderground v.1.15,2013-06-26 16:00:00,
2013-06-26 09:10:00,87.5,30.6,29.76,SW,233,6.0,6.0,13,0.00,,,0.00,Wunderground v.1.15,2013-06-26 16:10:00,
2013-06-26 09:15:00,88.1,31.1,29.76,ESE,107,4.0,6.0,13,0.00,,,0.00,Wunderground v.1.15,2013-06-26 16:15:00,
2013-06-26 09:20:00,89.0,29.8,29.76,SSW,204,4.0,4.0,12,0.00,,,0.00,Wunderground v.1.15,2013-06-26 16:20:00,
2013-06-26 09:25:00,89.9,30.5,29.76,SE,129,3.0,4.0,12,0.00,,,0.00,Wunderground v.1.15,2013-06-26 16:25:00,
2013-06-26 09:35:00,89.6,32.2,29.76,West,267,3.0,5.0,13,0.00,,,0.00,Wunderground v.1.15,2013-06-26 16:35:00,
2013-06-26 09:40:00,89.5,30.2,29.76,SSW,205,4.0,8.0,12,0.00,,,0.00,Wunderground v.1.15,2013-06-26 16:40:00,
2013-06-26 09:45:00,89.8,30.4,29.76,WNW,285,5.0,8.0,12,0.00,,,0.00,Wunderground v.1.15,2013-06-26 16:45:00,
2013-06-26 09:55:00,89.3,32.0,29.76,SW,217,3.0,5.0,13,0.00,,,0.00,Wunderground v.1.15,2013-06-26 16:55:00,
2013-06-26 10:05:00,89.5,32.2,29.76,WSW,255,5.0,7.0,13,0.00,,,0.00,Wunderground v.1.15,2013-06-26 17:05:00,
2013-06-26 10:10:00,89.3,30.0,29.76,SSW,208,5.0,5.0,12,0.00,,,0.00,Wunderground v.1.15,2013-06-26 17:10:00,
2013-06-26 10:15:00,90.4,30.9,29.76,South,191,4.0,8.0,12,0.00,,,0.00,Wunderground v.1.15,2013-06-26 17:15:00,
2013-06-26 10:25:00,90.6,31.0,29.77,WNW,284,5.0,7.0,12,0.00,,,0.00,Wunderground v.1.15,2013-06-26 17:25:00,
2013-06-26 10:30:00,89.6,30.2,29.76,WSW,256,5.0,6.0,12,0.00,,,0.00,Wunderground v.1.15,2013-06-26 17:30:00,
2013-06-26 10:35:00,89.9,30.5,29.76,WSW,243,4.0,6.0,12,0.00,,,0.00,Wunderground v.1.15,2013-06-26 17:35:00,
2013-06-26 10:40:00,90.6,28.9,29.76,WSW,248,4.0,7.0,11,0.00,,,0.00,Wunderground v.1.15,2013-06-26 17:40:00,
2013-06-26 10:50:00,90.4,28.7,29.76,WSW,257,6.0,6.0,11,0.00,,,0.00,Wunderground v.1.15,2013-06-26 17:50:00,
2013-06-26 10:55:00,90.9,29.1,29.76,SW,232,5.0,9.0,11,0.00,,,0.00,Wunderground v.1.15,2013-06-26 17:55:00,
2013-06-26 11:00:00,90.9,26.8,29.76,WSW,242,5.0,5.0,10,0.00,,,0.00,Wunderground v.1.15,2013-06-26 18:00:00,
2013-06-26 11:10:00,91.6,27.3,29.76,NW,313,3.0,3.0,10,0.00,,,0.00,Wunderground v.1.15,2013-06-26 18:10:00,
2013-06-26 11:15:00,91.8,24.9,29.76,WNW,283,5.0,5.0,9,0.00,,,0.00,Wunderground v.1.15,2013-06-26 18:15:00,
2013-06-26 11:20:00,92.3,25.3,29.76,West,263,7.0,7.0,9,0.00,,,0.00,Wunderground v.1.15,2013-06-26 18:20:00,
2013-06-26 11:25:00,91.7,24.8,29.76,WSW,258,6.0,7.0,9,0.00,,,0.00,Wunderground v.1.15,2013-06-26 18:25:00,
2013-06-26 11:35:00,92.3,19.3,29.76,West,267,6.0,6.0,7,0.00,,,0.00,Wunderground v.1.15,2013-06-26 18:35:00,
2013-06-26 11:40:00,92.9,19.8,29.76,SW,231,6.0,10.0,7,0.00,,,0.00,Wunderground v.1.15,2013-06-26 18:40:00,
2013-06-26 11:45:00,92.6,16.0,29.76,WSW,248,5.0,10.0,6,0.00,,,0.00,Wunderground v.1.15,2013-06-26 18:45:00,
2013-06-26 11:50:00,92.2,22.4,29.75,WNW,288,5.0,5.0,8,0.00,,,0.00,Wunderground v.1.15,2013-06-26 18:50:00,
2013-06-26 11:55:00,92.0,19.1,29.75,West,280,5.0,8.0,7,0.00,,,0.00,Wunderground v.1.15,2013-06-26 18:55:00,
2013-06-26 12:05:00,93.4,23.3,29.75,West,263,3.0,4.0,8,0.00,,,0.00,Wunderground v.1.15,2013-06-26 19:05:00,
2013-06-26 12:10:00,93.6,20.3,29.75,WSW,249,4.0,10.0,7,0.00,,,0.00,Wunderground v.1.15,2013-06-26 19:10:00,
2013-06-26 12:15:00,93.2,20.0,29.74,SW,214,6.0,10.0,7,0.00,,,0.00,Wunderground v.1.15,2013-06-26 19:15:00,
2013-06-26 12:20:00,93.4,20.1,29.74,SE,141,5.0,5.0,7,0.00,,,0.00,Wunderground v.1.15,2013-06-26 19:20:00,
2013-06-26 12:30:00,94.4,17.3,29.74,SSW,211,5.0,5.0,6,0.00,,,0.00,Wunderground v.1.15,2013-06-26 19:30:00,
2013-06-26 12:35:00,94.3,13.0,29.74,SSW,204,7.0,7.0,5,0.00,,,0.00,Wunderground v.1.15,2013-06-26 19:35:00,
2013-06-26 12:41:00,94.1,12.9,29.74,SSW,197,7.0,7.0,5,0.00,,,0.00,Wunderground v.1.15,2013-06-26 19:41:00,
2013-06-26 12:50:00,93.7,16.8,29.74,WSW,252,8.0,8.0,6,0.00,,,0.00,Wunderground v.1.15,2013-06-26 19:50:00,
2013-06-26 13:00:00,93.9,20.5,29.74,WSW,249,6.0,7.0,7,0.00,,,0.00,Wunderground v.1.15,2013-06-26 20:00:00,
2013-06-26 13:05:00,94.4,20.9,29.74,SW,225,6.0,7.0,7,0.00,,,0.00,Wunderground v.1.15,2013-06-26 20:05:00,
2013-06-26 13:10:00,95.3,17.9,29.73,South,186,5.0,5.0,6,0.00,,,0.00,Wunderground v.1.15,2013-06-26 20:10:00,
2013-06-26 13:20:00,95.0,21.3,29.73,WSW,242,7.0,7.0,7,0.00,,,0.00,Wunderground v.1.15,2013-06-26 20:20:00,
2013-06-26 13:25:00,95.4,18.0,29.73,WSW,249,7.0,8.0,6,0.00,,,0.00,Wunderground v.1.15,2013-06-26 20:25:00,
2013-06-26 13:30:00,94.8,21.1,29.73,SW,217,7.0,7.0,7,0.00,,,0.00,Wunderground v.1.15,2013-06-26 20:30:00,
2013-06-26 13:35:00,94.7,21.1,29.73,SSW,211,7.0,7.0,7,0.00,,,0.00,Wunderground v.1.15,2013-06-26 20:35:00,
2013-06-26 13:40:00,95.4,18.0,29.72,SW,236,7.0,7.0,6,0.00,,,0.00,Wunderground v.1.15,2013-06-26 20:40:00,
2013-06-26 13:50:00,96.2,18.5,29.72,SW,233,7.0,7.0,6,0.00,,,0.00,Wunderground v.1.15,2013-06-26 20:50:00,
2013-06-26 13:55:00,96.8,19.0,29.71,SSW,208,7.0,7.0,6,0.00,,,0.00,Wunderground v.1.15,2013-06-26 20:55:00,
2013-06-26 14:00:00,96.4,18.7,29.71,SSW,193,7.0,10.0,6,0.00,,,0.00,Wunderground v.1.15,2013-06-26 21:00:00,
2013-06-26 14:10:00,97.2,19.3,29.71,SW,229,7.0,7.0,6,0.00,,,0.00,Wunderground v.1.15,2013-06-26 21:10:00,
2013-06-26 14:20:00,96.6,22.5,29.70,SSW,197,8.0,8.0,7,0.00,,,0.00,Wunderground v.1.15,2013-06-26 21:20:00,
2013-06-26 14:25:00,96.5,22.4,29.70,WSW,253,7.0,8.0,7,0.00,,,0.00,Wunderground v.1.15,2013-06-26 21:25:00,
2013-06-26 14:30:00,97.4,19.4,29.70,WSW,242,7.0,10.0,6,0.00,,,0.00,Wunderground v.1.15,2013-06-26 21:30:00,
2013-06-26 14:40:00,96.8,19.0,29.69,SW,214,8.0,8.0,6,0.00,,,0.00,Wunderground v.1.15,2013-06-26 21:40:00,
2013-06-26 14:45:00,97.2,19.3,29.69,SE,145,7.0,8.0,6,0.00,,,0.00,Wunderground v.1.15,2013-06-26 21:45:00,
2013-06-26 14:50:00,97.3,19.3,29.69,SW,214,6.0,11.0,6,0.00,,,0.00,Wunderground v.1.15,2013-06-26 21:50:00,
2013-06-26 14:55:00,96.5,18.8,29.69,WSW,252,8.0,11.0,6,0.00,,,0.00,Wunderground v.1.15,2013-06-26 21:55:00,
2013-06-26 15:05:00,97.4,19.4,29.68,SSE,153,5.0,9.0,6,0.00,,,0.00,Wunderground v.1.15,2013-06-26 22:05:00,
2013-06-26 15:10:00,98.2,15.7,29.68,SSW,200,6.0,11.0,5,0.00,,,0.00,Wunderground v.1.15,2013-06-26 22:10:00,
2013-06-26 15:15:00,98.4,15.9,29.68,SW,236,9.0,11.0,5,0.00,,,0.00,Wunderground v.1.15,2013-06-26 22:15:00,
2013-06-26 15:20:00,97.9,15.5,29.68,WSW,253,8.0,12.0,5,0.00,,,0.00,Wunderground v.1.15,2013-06-26 22:20:00,
2013-06-26 15:30:00,97.1,15.0,29.68,NW,304,9.0,9.0,5,0.00,,,0.00,Wunderground v.1.15,2013-06-26 22:30:00,
2013-06-26 15:35:00,97.4,15.2,29.68,SW,225,7.0,10.0,5,0.00,,,0.00,Wunderground v.1.15,2013-06-26 22:35:00,
2013-06-26 15:40:00,97.7,15.4,29.67,SW,236,6.0,6.0,5,0.00,,,0.00,Wunderground v.1.15,2013-06-26 22:40:00,
2013-06-26 15:45:00,98.1,15.7,29.67,WSW,240,5.0,12.0,5,0.00,,,0.00,Wunderground v.1.15,2013-06-26 22:45:00,
2013-06-26 15:55:00,99.2,16.4,29.67,NNE,13,5.0,12.0,5,0.00,,,0.00,Wunderground v.1.15,2013-06-26 22:55:00,
2013-06-26 16:00:00,98.4,15.9,29.67,SW,235,5.0,6.0,5,0.00,,,0.00,Wunderground v.1.15,2013-06-26 23:00:00,
2013-06-26 16:05:00,98.1,15.7,29.67,WSW,249,6.0,8.0,5,0.00,,,0.00,Wunderground v.1.15,2013-06-26 23:05:00,
2013-06-26 16:10:00,97.2,15.0,29.67,WSW,254,7.0,8.0,5,0.00,,,0.00,Wunderground v.1.15,2013-06-26 23:10:00,
2013-06-26 16:20:00,97.8,15.4,29.67,WSW,247,8.0,8.0,5,0.00,,,0.00,Wunderground v.1.15,2013-06-26 23:20:00,
2013-06-26 16:25:00,97.8,19.7,29.67,SW,231,7.0,8.0,6,0.00,,,0.00,Wunderground v.1.15,2013-06-26 23:25:00,
2013-06-26 16:30:00,97.9,15.5,29.66,WSW,238,6.0,11.0,5,0.00,,,0.00,Wunderground v.1.15,2013-06-26 23:30:00,
2013-06-26 16:40:00,97.7,15.4,29.66,SSW,205,8.0,10.0,5,0.00,,,0.00,Wunderground v.1.15,2013-06-26 23:40:00,
2013-06-26 16:50:00,97.8,15.4,29.66,West,261,8.0,8.0,5,0.00,,,0.00,Wunderground v.1.15,2013-06-26 23:50:00,
2013-06-26 16:55:00,98.4,15.9,29.66,SSW,203,5.0,8.0,5,0.00,,,0.00,Wunderground v.1.15,2013-06-26 23:55:00,
2013-06-26 17:00:00,97.8,15.4,29.66,West,271,6.0,6.0,5,0.00,,,0.00,Wunderground v.1.15,2013-06-27 00:00:00,
2013-06-26 17:10:00,97.6,15.3,29.65,SSW,204,5.0,6.0,5,0.00,,,0.00,Wunderground v.1.15,2013-06-27 00:10:00,
2013-06-26 17:20:00,97.1,15.0,29.65,NNE,13,7.0,7.0,5,0.00,,,0.00,Wunderground v.1.15,2013-06-27 00:20:00,
2013-06-26 17:25:00,97.2,15.0,29.65,WSW,238,5.0,7.0,5,0.00,,,0.00,Wunderground v.1.15,2013-06-27 00:25:00,
2013-06-26 17:30:00,98.0,15.6,29.65,SW,235,4.0,4.0,5,0.00,,,0.00,Wunderground v.1.15,2013-06-27 00:30:00,
2013-06-26 17:40:00,97.7,15.4,29.65,SW,236,4.0,9.0,5,0.00,,,0.00,Wunderground v.1.15,2013-06-27 00:40:00,
2013-06-26 17:45:00,97.2,15.0,29.65,WSW,239,5.0,9.0,5,0.00,,,0.00,Wunderground v.1.15,2013-06-27 00:45:00,
2013-06-26 17:50:00,97.2,19.3,29.65,West,268,6.0,6.0,6,0.00,,,0.00,Wunderground v.1.15,2013-06-27 00:50:00,
2013-06-26 17:55:00,96.8,19.0,29.65,WSW,254,7.0,7.0,6,0.00,,,0.00,Wunderground v.1.15,2013-06-27 00:55:00,
2013-06-26 18:00:00,97.0,19.1,29.65,SSW,194,6.0,6.0,6,0.00,,,0.00,Wunderground v.1.15,2013-06-27 01:00:00,
2013-06-26 18:11:00,97.0,14.9,29.65,WNW,301,4.0,4.0,5,0.00,,,0.00,Wunderground v.1.15,2013-06-27 01:11:00,
2013-06-26 18:20:00,96.2,18.5,29.65,North,356,3.0,3.0,6,0.00,,,0.00,Wunderground v.1.15,2013-06-27 01:20:00,
2013-06-26 18:30:00,95.2,17.8,29.65,West,261,4.0,5.0,6,0.00,,,0.00,Wunderground v.1.15,2013-06-27 01:30:00,
2013-06-26 18:35:00,94.7,21.1,29.65,NNW,340,5.0,5.0,7,0.00,,,0.00,Wunderground v.1.15,2013-06-27 01:35:00,
2013-06-26 18:40:00,94.3,20.8,29.65,WNW,285,3.0,3.0,7,0.00,,,0.00,Wunderground v.1.15,2013-06-27 01:40:00,
2013-06-26 18:45:00,94.1,20.6,29.65,WNW,301,2.0,4.0,7,0.00,,,0.00,Wunderground v.1.15,2013-06-27 01:45:00,
2013-06-26 18:55:00,93.7,20.3,29.65,WNW,295,3.0,3.0,7,0.00,,,0.00,Wunderground v.1.15,2013-06-27 01:55:00,
2013-06-26 19:05:00,93.5,20.2,29.65,WNW,292,3.0,6.0,7,0.00,,,0.00,Wunderground v.1.15,2013-06-27 02:05:00,
2013-06-26 19:11:00,93.5,20.2,29.65,WNW,295,3.0,3.0,7,0.00,,,0.00,Wunderground v.1.15,2013-06-27 02:11:00,
2013-06-26 19:20:00,93.1,19.9,29.65,NNW,332,3.0,3.0,7,0.00,,,0.00,Wunderground v.1.15,2013-06-27 02:20:00,
2013-06-26 19:25:00,92.7,19.6,29.65,NNW,340,2.0,3.0,7,0.00,,,0.00,Wunderground v.1.15,2013-06-27 02:25:00,
2013-06-26 19:30:00,92.5,19.5,29.66,NW,323,2.0,2.0,7,0.00,,,0.00,Wunderground v.1.15,2013-06-27 02:30:00,
2013-06-26 19:40:00,92.2,19.3,29.66,NNW,332,2.0,3.0,7,0.00,,,0.00,Wunderground v.1.15,2013-06-27 02:40:00,
2013-06-26 19:50:00,91.9,19.0,29.66,NNW,338,3.0,3.0,7,0.00,,,0.00,Wunderground v.1.15,2013-06-27 02:50:00,
2013-06-26 20:00:00,91.6,18.8,29.66,NNW,333,3.0,3.0,7,0.00,,,0.00,Wunderground v.1.15,2013-06-27 03:00:00,
2013-06-26 20:10:00,91.5,18.7,29.66,NW,315,4.0,4.0,7,0.00,,,0.00,Wunderground v.1.15,2013-06-27 03:10:00,
2013-06-26 20:15:00,91.3,18.6,29.66,NNW,333,4.0,4.0,7,0.00,,,0.00,Wunderground v.1.15,2013-06-27 03:15:00,
2013-06-26 20:20:00,90.7,18.2,29.67,NNW,348,3.0,5.0,7,0.00,,,0.00,Wunderground v.1.15,2013-06-27 03:20:00,
2013-06-26 20:25:00,90.3,17.9,29.67,North,353,3.0,5.0,7,0.00,,,0.00,Wunderground v.1.15,2013-06-27 03:25:00,
2013-06-26 20:30:00,90.1,17.7,29.67,NNW,339,3.0,4.0,7,0.00,,,0.00,Wunderground v.1.15,2013-06-27 03:30:00,
2013-06-26 20:40:00,89.9,17.6,29.67,NNW,337,4.0,4.0,7,0.00,,,0.00,Wunderground v.1.15,2013-06-27 03:40:00,
2013-06-26 20:45:00,89.9,17.6,29.67,NNW,329,3.0,4.0,7,0.00,,,0.00,Wunderground v.1.15,2013-06-27 03:45:00,
2013-06-26 20:50:00,89.8,17.5,29.67,NNW,343,3.0,3.0,7,0.00,,,0.00,Wunderground v.1.15,2013-06-27 03:50:00,
2013-06-26 20:55:00,89.5,20.4,29.67,NNW,332,3.0,6.0,8,0.00,,,0.00,Wunderground v.1.15,2013-06-27 03:55:00,
2013-06-26 21:00:00,89.4,20.3,29.68,NNE,19,4.0,4.0,8,0.00,,,0.00,Wunderground v.1.15,2013-06-27 04:00:00,
2013-06-26 21:05:00,89.4,17.2,29.68,North,9,5.0,7.0,7,0.00,,,0.00,Wunderground v.1.15,2013-06-27 04:05:00,
2013-06-26 21:10:00,89.8,17.5,29.68,NNE,27,7.0,7.0,7,0.00,,,0.00,Wunderground v.1.15,2013-06-27 04:10:00,
2013-06-26 21:15:00,89.9,17.6,29.68,NNE,15,8.0,8.0,7,0.00,,,0.00,Wunderground v.1.15,2013-06-27 04:15:00,
2013-06-26 21:20:00,89.9,17.6,29.68,NNW,339,7.0,7.0,7,0.00,,,0.00,Wunderground v.1.15,2013-06-27 04:20:00,
2013-06-26 21:25:00,89.6,20.5,29.69,NNE,16,8.0,8.0,8,0.00,,,0.00,Wunderground v.1.15,2013-06-27 04:25:00,
2013-06-26 21:30:00,89.5,20.4,29.69,North,1,7.0,7.0,8,0.00,,,0.00,Wunderground v.1.15,2013-06-27 04:30:00,
2013-06-26 21:40:00,89.5,20.4,29.69,North,356,7.0,7.0,8,0.00,,,0.00,Wunderground v.1.15,2013-06-27 04:40:00,
2013-06-26 21:45:00,89.2,20.2,29.69,North,6,7.0,10.0,8,0.00,,,0.00,Wunderground v.1.15,2013-06-27 04:45:00,
2013-06-26 21:50:00,89.5,23.2,29.69,NNE,20,7.0,8.0,9,0.00,,,0.00,Wunderground v.1.15,2013-06-27 04:50:00,
2013-06-26 21:55:00,89.6,23.3,29.69,North,6,8.0,8.0,9,0.00,,,0.00,Wunderground v.1.15,2013-06-27 04:55:00,
2013-06-26 22:00:00,89.5,23.2,29.70,North,8,7.0,7.0,9,0.00,,,0.00,Wunderground v.1.15,2013-06-27 05:00:00,
2013-06-26 22:05:00,89.5,23.2,29.70,North,350,7.0,7.0,9,0.00,,,0.00,Wunderground v.1.15,2013-06-27 05:05:00,
2013-06-26 22:10:00,89.5,23.2,29.70,North,359,8.0,8.0,9,0.00,,,0.00,Wunderground v.1.15,2013-06-27 05:10:00,
2013-06-26 22:15:00,89.3,23.0,29.70,NNW,348,8.0,8.0,9,0.00,,,0.00,Wunderground v.1.15,2013-06-27 05:15:00,
2013-06-26 22:20:00,89.3,23.0,29.70,North,349,7.0,7.0,9,0.00,,,0.00,Wunderground v.1.15,2013-06-27 05:20:00,
2013-06-26 22:25:00,89.2,23.0,29.70,North,8,7.0,7.0,9,0.00,,,0.00,Wunderground v.1.15,2013-06-27 05:25:00,
2013-06-26 22:35:00,89.0,25.3,29.70,North,1,6.0,6.0,10,0.00,,,0.00,Wunderground v.1.15,2013-06-27 05:35:00,
2013-06-26 22:40:00,88.7,25.1,29.71,North,1,6.0,6.0,10,0.00,,,0.00,Wunderground v.1.15,2013-06-27 05:40:00,
2013-06-26 22:45:00,88.8,25.2,29.71,NNW,332,5.0,6.0,10,0.00,,,0.00,Wunderground v.1.15,2013-06-27 05:45:00,
2013-06-26 22:50:00,88.5,27.3,29.71,NNW,341,6.0,6.0,11,0.00,,,0.00,Wunderground v.1.15,2013-06-27 05:50:00,
2013-06-26 22:55:00,88.4,27.2,29.70,North,350,5.0,6.0,11,0.00,,,0.00,Wunderground v.1.15,2013-06-27 05:55:00,
2013-06-26 23:00:00,88.6,27.3,29.70,NNW,335,6.0,6.0,11,0.00,,,0.00,Wunderground v.1.15,2013-06-27 06:00:00,
2013-06-26 23:10:00,88.8,29.6,29.70,North,351,7.0,7.0,12,0.00,,,0.00,Wunderground v.1.15,2013-06-27 06:10:00,
2013-06-26 23:15:00,88.7,29.6,29.71,North,356,7.0,9.0,12,0.00,,,0.00,Wunderground v.1.15,2013-06-27 06:15:00,
2013-06-26 23:20:00,88.8,29.6,29.71,NNW,346,8.0,8.0,12,0.00,,,0.00,Wunderground v.1.15,2013-06-27 06:20:00,
2013-06-26 23:25:00,88.6,29.5,29.71,NNW,342,7.0,8.0,12,0.00,,,0.00,Wunderground v.1.15,2013-06-27 06:25:00,
2013-06-26 23:30:00,88.5,29.4,29.71,North,5,6.0,6.0,12,0.00,,,0.00,Wunderground v.1.15,2013-06-27 06:30:00,
2013-06-26 23:41:00,87.9,28.9,29.71,NNW,343,6.0,6.0,12,0.00,,,0.00,Wunderground v.1.15,2013-06-27 06:41:00,
2013-06-26 23:51:00,87.9,28.9,29.71,North,6,6.0,7.0,12,0.00,,,0.00,Wunderground v.1.15,2013-06-27 06:51:00,